Location: Malvern Link
(52.1333°N, 2.3000°W)
Time: 15:58:39
(UTC+00:00)

SO-50 - Pass Details

Date: 10 July 2022
Orbit: 585 x 698 km, 64.6° (Epoch: 11 August)

Event Time Altitude Azimuth Distance (km) Brightness Sun altitude
Rises 23:20:47 0° 240° (WSW) 2,981 ? -14.8°
Reaches altitude 10° 23:23:07 10° 246° (WSW) 2,090 ? -14.9°
Maximum altitude 23:27:46 50° 322° (NW) 868 ? -15.0°
Drops below altitude 10° 23:32:33 10° 38° (NE) 2,154 ? -15.2°
Sets 23:35:00 0° 44° (NE) 3,082 ? -15.2°
